This is the latest recevied weather packets stored in our database for station/object K4DFD-13. If no packets are shown the sender has not sent any weather packets the latest 1 day(s).
| Time | Temp. | Humidity | Pressure | Rain* | Wind** | Luminosity | Snow |
|---|---|---|---|---|---|---|---|
| 1777974044 | 8.89° C | 80% | 1015.2 hPa | 0 mm | 0 m/s | - | - |
| 1777973747 | 8.89° C | 80% | 1015.1 hPa | 0 mm | 0 m/s | - | - |
| 1777973439 | 8.33° C | 81% | 1015.1 hPa | 0 mm | 0.45 m/s, 334° | - | - |
| 1777973139 | 8.33° C | 82% | 1015.2 hPa | 0 mm | 0 m/s | - | - |
| 1777972838 | 8.33° C | 82% | 1015.2 hPa | 0 mm | 0.45 m/s, 315° | - | - |
| 1777972538 | 8.33° C | 82% | 1015.3 hPa | 0 mm | 0 m/s | - | - |
| 1777972238 | 8.33° C | 81% | 1015.2 hPa | 0 mm | 0 m/s | - | - |
| 1777971937 | 8.33° C | 81% | 1015.2 hPa | 0 mm | 0 m/s | - | - |
| 1777971637 | 8.89° C | 81% | 1015.3 hPa | 0 mm | 0 m/s | - | - |
| 1777971340 | 8.89° C | 79% | 1015.3 hPa | 0 mm | 0 m/s | - | - |
| 1777971036 | 8.89° C | 80% | 1015.2 hPa | 0 mm | 0 m/s | - | - |
| 1777970738 | 9.44° C | 79% | 1015.2 hPa | 0 mm | 0.45 m/s, 328° | - | - |
| 1777970436 | 9.44° C | 78% | 1015.3 hPa | 0 mm | 0.45 m/s, 264° | - | - |
| 1777970138 | 9.44° C | 78% | 1015.3 hPa | 0 mm | 0 m/s | - | - |
| 1777969835 | 10° C | 77% | 1015.4 hPa | 0 mm | 0 m/s | - | - |
| 1777969534 | 10° C | 75% | 1015.3 hPa | 0 mm | 0 m/s | - | - |
| 1777969249 | 10° C | 75% | 1015.3 hPa | 0 mm | 0 m/s | - | - |
| 1777968933 | 10.56° C | 74% | 1015.1 hPa | 0 mm | 0 m/s | - | - |
| 1777968653 | 10.56° C | 73% | 1015.1 hPa | 0 mm | 0.45 m/s, 293° | - | - |
| 1777968333 | 11.11° C | 71% | 1015 hPa | 0 mm | 0.45 m/s, 208° | - | - |
| 1777968032 | 11.11° C | 71% | 1014.9 hPa | 0 mm | 0 m/s | - | - |
| 1777967732 | 11.11° C | 70% | 1014.9 hPa | 0 mm | 0 m/s | - | - |
| 1777967432 | 11.11° C | 71% | 1014.9 hPa | 0 mm | 0 m/s | - | - |
| 1777967131 | 11.11° C | 70% | 1014.8 hPa | 0 mm | 0.45 m/s, 336° | - | - |
| 1777966842 | 10.56° C | 71% | 1014.8 hPa | 0 mm | 0 m/s | - | - |
* Rain latest hour (hover to see other rain measurements)
** Current wind speed in m/s (hover to see current wind gust speed)